Weather History for Orange, MA

Change the Weather History Date:

Friday, September 27, 2013

  Actual Average Record
Temperature  
Mean Temperature 55 °F -  
Max Temperature 64 °F 65 °F 82 °F (1998)
Min Temperature 45 °F 41 °F 35 °F (1997)
Degree Days  
Heating Degree Days 10    
Growing Degree Days 5 (Base 50)    
Moisture  
Dew Point 48 °F    
Average Humidity 84    
Maximum Humidity 100    
Minimum Humidity 58    
Precipitation  
Precipitation 0.00 in - - ()
Sea Level Pressure  
Sea Level Pressure 30.24 in    
Wind  
Wind Speed 2 mph (NW)    
Max Wind Speed 7 mph    
Max Gust Speed -    
Visibility 7 miles    
Events      
Averages and records for this station are not official NWS values.
T = Trace of Precipitation, MM = Missing Value Source: NWS Daily Summary

Daily Weather History Graph

Daily Weather History Graph

Search for Another Location

Airport:

Trip Planner

Search our weather history database for the weather conditions in past years. The results will help you decide how hot, cold, wet, or windy it might be!

Date:

Astronomy

Sep. 27, 2013 Rise Set
Actual Time 6:42 AM EDT 6:37 PM EDT
Civil Twilight 6:14 AM EDT 7:05 PM EDT
Nautical Twilight 5:41 AM EDT 7:37 PM EDT
Astronomical Twilight 5:07 AM EDT 8:11 PM EDT
Moon No Moon Rise 2:20 PM EDT (9/27)
Length of Visible Light 12h 51m
Length of Day
11h 55m
Last Quarter, 45% of the Moon is Illuminated
Sep 27
Last Quarter
Oct 4
New
Oct 11
First Quarter
Oct 18
Full
Oct 26
Last Quarter

Hourly Weather History & Observations

Time (EDT) Temp. Dew Point Humidity Pressure Visibility Wind Dir Wind Speed Gust Speed Precip Events Conditions
12:52 AM 54.0 °F 48.9 °F 83% 30.15 in 10.0 mi Calm Calm - N/A   Overcast
1:52 AM 54.0 °F 48.9 °F 83% 30.17 in 10.0 mi Calm Calm - N/A   Overcast
2:52 AM 53.1 °F 48.9 °F 86% 30.16 in 10.0 mi Calm Calm - N/A   Overcast
3:52 AM 53.1 °F 48.9 °F 86% 30.16 in 10.0 mi Calm Calm - N/A   Overcast
4:52 AM 53.1 °F 48.0 °F 83% 30.18 in 10.0 mi NW 4.6 mph - N/A   Overcast
5:52 AM 52.0 °F 48.0 °F 86% 30.19 in 10.0 mi NNW 4.6 mph - N/A   Overcast
6:52 AM 52.0 °F 48.0 °F 86% 30.21 in 10.0 mi NW 4.6 mph - N/A   Overcast
7:52 AM 53.1 °F 48.0 °F 83% 30.23 in 10.0 mi NW 3.5 mph - N/A   Overcast
8:52 AM 54.0 °F 48.9 °F 83% 30.25 in 10.0 mi Calm Calm - N/A   Overcast
9:52 AM 55.0 °F 48.9 °F 80% 30.26 in 10.0 mi Calm Calm - N/A   Overcast
10:52 AM 57.0 °F 48.9 °F 74% 30.27 in 10.0 mi NW 5.8 mph - N/A   Overcast
11:52 AM 60.1 °F 50.0 °F 69% 30.26 in 10.0 mi NW 5.8 mph - N/A   Overcast
12:52 PM 62.1 °F 48.0 °F 60% 30.25 in 10.0 mi NW 6.9 mph - N/A   Overcast
1:52 PM 63.0 °F 48.9 °F 60% 30.23 in 10.0 mi North 6.9 mph - N/A   Overcast
2:52 PM 64.0 °F 48.9 °F 58% 30.22 in 10.0 mi Variable 5.8 mph - N/A   Overcast
3:52 PM 63.0 °F 50.0 °F 63% 30.22 in 10.0 mi NNW 5.8 mph - N/A   Overcast
4:52 PM 63.0 °F 50.0 °F 63% 30.23 in 10.0 mi NNW 4.6 mph - N/A   Overcast
5:52 PM 62.1 °F 52.0 °F 70% 30.23 in 10.0 mi WNW 4.6 mph - N/A   Partly Cloudy
6:52 PM 57.0 °F 51.1 °F 81% 30.25 in 10.0 mi WNW 3.5 mph - N/A   Clear
7:52 PM 52.0 °F 50.0 °F 93% 30.25 in 10.0 mi Calm Calm - N/A   Clear
8:52 PM 50.0 °F 48.0 °F 93% 30.27 in 10.0 mi Calm Calm - N/A   Clear
9:37 PM 48.2 °F 46.4 °F 93% 30.27 in 1.8 mi Calm Calm - N/A   Clear
9:45 PM 48.2 °F 46.4 °F 93% 30.27 in 3.0 mi Calm Calm - N/A   Clear
9:52 PM 46.9 °F 46.0 °F 97% 30.29 in 1.8 mi Calm Calm - N/A   Clear
9:56 PM 46.4 °F 46.4 °F 100% 30.28 in 1.0 mi Calm Calm - N/A   Mist
10:04 PM 46.4 °F 46.4 °F 100% 30.28 in 0.8 mi Calm Calm - N/A   Mist
10:10 PM 46.4 °F 46.4 °F 100% 30.28 in 1.2 mi Calm Calm - N/A   Partly Cloudy
10:18 PM 46.4 °F 46.4 °F 100% 30.28 in 2.0 mi Calm Calm - N/A   Partly Cloudy
10:27 PM 46.4 °F 46.4 °F 100% 30.28 in 10.0 mi Calm Calm - N/A   Clear
10:50 PM 46.4 °F 44.6 °F 93% 30.28 in 1.8 mi Calm Calm - N/A   Clear
10:52 PM 46.0 °F 45.0 °F 96% 30.30 in 1.8 mi Calm Calm - N/A   Clear
10:58 PM 46.4 °F 44.6 °F 93% 30.28 in 4.0 mi Calm Calm - N/A   Clear
11:52 PM 45.0 °F 43.0 °F 93% 30.30 in 6.0 mi Calm Calm - N/A   Clear